Location: Hurstbourne Priors
(51.2000°N, 1.3667°W)
Time: 20:13:06
(UTC+00:00)

Transit 4A - Pass Details

Date: 25 April 2021
Orbit: 870 x 974 km, 66.8° (Epoch: 09 May)

Event Time Altitude Azimuth Distance (km) Brightness Sun altitude
Rises 07:04:52 0° 321° (NW) 3,522 10.5 19.9°
Reaches altitude 10° 07:07:25 10° 318° (NW) 2,565 9.9 20.3°
Maximum altitude 07:13:15 64° 239° (WSW) 971 8.1 21.2°
Drops below altitude 10° 07:18:58 10° 159° (SSE) 2,513 10.6 22.1°
Sets 07:21:27 0° 156° (SSE) 3,446 11.3 22.5°
